Flag for Netherlands Weather past 2 weeks in Maastricht, Netherlands

Now
37 °F

Passing clouds.


Feels Like: 31 °F
Forecast: 46 / 52 °F
Wind: 9 mph from Southwest

Location: Maastricht Airport Zuid Limburg

Current Time: Dec 21, 2014 at 6:49:12 AM

Latest Report: Dec 21, 2014 at 6:25 AM


Visibility: 4 mi

Pressure: 30.42 "Hg

Humidity: 100%

Dew point: 37 °F

Location of MaastrichtLocation

Historic Weather in Maastricht — Graph

°F

Maastricht temperature yesterday

Maximum temperature yesterday: 46 °F (at 5:25 PM)
Minimum temperature yesterday: 39 °F (at 12:25 AM)
Average temperature yesterday: 42 °F

Past Weeks' High & Low Weather Summary

 TemperatureHumidityPressure
High54 °F (Dec 18, 11:25 AM)100% (Dec 6, 5:25 AM)30.42 "Hg (Dec 6, 5:25 AM)
Low32 °F (Dec 8, 7:25 AM)66% (Dec 10, 3:55 PM)29.42 "Hg (Dec 12, 2:55 PM)
Average42 °F90%29.98 "Hg
* Reported Dec 6 5:25 AM — Dec 21 5:55 AM, Maastricht, Weather by CustomWeather, © 2014

Note: Actual official high and low records may vary slightly from our data, if they occured in-between our weather recording intervals... More about our weather records

Advertising

Maastricht weather history for previous 24 hours

 ConditionsComfort  
Time TempWeatherWind HumidityBarometerVisibility
5:55 AM
Dec 21
37 °FChilly.8 mph93%30.42 "Hg5 mi
5:25 AM37 °FChilly.10 mph93%30.42 "Hg6 mi
4:55 AM37 °FChilly.10 mph93%30.42 "HgN/A
4:25 AM39 °FMostly cloudy.9 mph93%30.42 "HgN/A
3:55 AM39 °FClear.10 mph93%30.42 "HgN/A
3:25 AM39 °FPassing clouds.9 mph93%30.42 "HgN/A
2:55 AM39 °FClear.9 mph93%30.39 "HgN/A
2:25 AM39 °FClear.10 mph93%30.39 "HgN/A
1:55 AM39 °FClear.8 mph93%30.39 "HgN/A
1:25 AM41 °FClear.8 mph87%30.39 "HgN/A
12:55 AM43 °FClear.7 mph81%30.39 "HgN/A
12:25 AM43 °FPassing clouds.7 mph81%30.36 "HgN/A
11:55 PM
Dec 20
43 °FPassing clouds.8 mph87%30.36 "HgN/A
11:25 PM43 °FPassing clouds.9 mph87%30.36 "HgN/A
10:25 PM43 °FClear.10 mph87%30.33 "HgN/A
9:55 PM43 °FOvercast.8 mph87%30.33 "HgN/A
9:25 PM43 °FPassing clouds.8 mph87%30.30 "HgN/A
8:55 PM45 °FDrizzle. Mostly cloudy.9 mph81%30.30 "HgN/A
8:25 PM45 °FPartly cloudy.9 mph76%30.27 "HgN/A
7:55 PM43 °FPassing clouds.10 mph81%30.27 "HgN/A
7:25 PM45 °FPartly cloudy.10 mph76%30.24 "HgN/A
6:55 PM45 °FPartly cloudy.10 mph76%30.24 "HgN/A
6:25 PM45 °FPartly cloudy.12 mph76%30.21 "HgN/A
5:55 PM45 °FPartly cloudy.13 mph76%30.21 "HgN/A
5:25 PM46 °FPartly cloudy.14 mph71%30.18 "HgN/A
4:55 PM45 °FOvercast.14 mph76%30.18 "HgN/A
4:25 PM45 °FMostly cloudy.13 mph76%30.15 "HgN/A
3:55 PM45 °FBroken clouds.13 mph76%30.15 "HgN/A
3:25 PM45 °FBroken clouds.12 mph76%30.15 "HgN/A
2:55 PM45 °FBroken clouds.15 mph76%30.15 "HgN/A
2:25 PM45 °FBroken clouds.16 mph76%30.15 "HgN/A
1:55 PM45 °FDrizzle. Cloudy.15 mph76%30.12 "HgN/A
1:25 PM45 °FMostly cloudy.14 mph76%30.15 "HgN/A
12:55 PM45 °FBroken clouds.14 mph76%30.15 "HgN/A
12:25 PM45 °FMostly cloudy.15 mph76%30.15 "HgN/A
11:55 AM45 °FClear.16 mph76%30.15 "HgN/A
11:25 AM43 °FPassing clouds.15 mph81%30.18 "HgN/A
10:55 AM43 °FMostly cloudy.17 mph81%30.18 "HgN/A
9:55 AM41 °FMostly cloudy.15 mph87%30.18 "HgN/A
9:25 AM41 °FBroken clouds.18 mph87%30.18 "HgN/A
8:55 AM41 °FCloudy.17 mph87%30.18 "HgN/A
8:25 AM41 °FPassing clouds.18 mph87%30.15 "HgN/A
7:55 AM39 °FPassing clouds.15 mph93%30.18 "HgN/A
7:25 AM39 °FChilly.16 mph87%30.18 "HgN/A
6:55 AM39 °FChilly.14 mph87%30.18 "HgN/A
6:25 AM39 °FChilly.15 mph87%30.18 "HgN/A
Weather by CustomWeather, © 2014

See weather overviewHow to use our weather pages